Notices

What's New in latest Release from April 7th, 2021:

- Updated Glossary, including Speed of Maximum Gust, and Total Hourly Precipitation

- Updated national and regional climate services offices contacts and prices information

- Addition of station inventory lists for 1981-2010, 1971-2000, and 1961-1990 Normals.

If you haven't already, please take our survey and provide feedback about our website: https://eccc.sondage-survey.ca/f/LanguageSelection.aspx?s=442ca660-fcf1-47c0-95a9-59707d6fd709

Hourly Data Report for March 04, 2020

MIRAMICHI RCS
NEW BRUNSWICK
Current Station Operator: ECCC - MSC

47°00'34.000" N
65°27'54.000" W
33.00 m
8100989
71744
ACQ

Download Data

Hourly Data (March 2020)
Hourly Data Report for March 4, 2020
TIME
LST
Temp Definition
°C
Dew Point Definition
°C
Rel Hum Definition
%
Precip. Amount Definition
mm

Wind Dir Definition
10's deg

Wind Spd Definition
km/h
Visibility Definition
km
Stn Press Definition
kPa
Hmdx Definition


Wind Chill Definition


Weather Definition


00:00 -1.3 -1.7 97 LegendMM 6 7   99.94   -4 LegendNANA
01:00 -1.0 -1.4 97 LegendMM 6 8   99.83   -4 LegendNANA
02:00 -0.5 -0.9 98 LegendMM 5 12   99.64   -4 LegendNANA
03:00 -0.3 -0.6 98 LegendMM 5 15   99.42   -5 LegendNANA
04:00 -0.2 -0.5 98 LegendMM 6 14   99.26   -4 LegendNANA
05:00 0.2 0.0 98 LegendMM 5 17   99.08     LegendNANA
06:00 0.6 0.3 98 LegendMM 6 20   98.84     LegendNANA
07:00 1.9 1.6 98 LegendMM 8 26   98.58     LegendNANA
08:00 1.5 1.3 99 LegendMM 7 20   98.41     LegendNANA
09:00 0.9 0.5 97 LegendMM 7 26   98.18     LegendNANA
10:00 0.7 0.3 97 LegendMM 7 19   98.02     LegendNANA
11:00 0.8 0.5 98 LegendMM 5 16   97.84     LegendNANA
12:00 1.3 0.7 96 LegendMM 5 15   97.66     LegendNANA
13:00 2.1 1.6 96 LegendMM 36 4   97.55     LegendNANA
14:00 2.2 1.3 94 LegendMM 30 10   97.49     LegendNANA
15:00 2.1 0.6 90 LegendMM 29 18   97.54     LegendNANA
16:00 1.6 0.5 92 LegendMM 29 12   97.62     LegendNANA
17:00 1.0 0.2 94 LegendMM 28 12   97.75     LegendNANA
18:00 0.6 0.0 96 LegendMM 27 11   97.90     LegendNANA
19:00 0.4 -0.1 96 LegendMM 24 17   97.98     LegendNANA
20:00 0.8 -0.2 93 LegendMM 25 24   98.04     LegendNANA
21:00 0.8 -0.9 88 LegendMM 26 26   98.13     LegendNANA
22:00 0.2 -0.8 93 LegendMM 27 25   98.24     LegendNANA
23:00 -0.5 -1.3 94 LegendMM 27 22   98.39   -6 LegendNANA

Notes on Data Quality.

Legend

  • E = Estimated
  • M = Missing
  • NA = Not Available*
  • [empty] = Indicates an unobserved value
Date modified: